00:00:04,812AACE0,0,0,18084,0,0,144
00:00:12,812AADE0,0,0,18084,0,0,144
00:00:20,812AAEE0,0,0,18084,0,0,144
00:00:36,812AB0E0,0,0,18084,0,0,144
00:00:44,812AB1E0,0,0,18084,0,0,145
00:00:52,812AB2E0,0,0,18084,0,0,145
00:01:08,812AB4E0,0,0,18084,0,0,145
00:01:16,812AB5E0,0,0,18084,0,0,145
00:01:24,812AB6E0,0,0,18084,0,0,145
00:01:32,812AB7E0,0,0,18084,0,0,145
00:01:40,812AB8E0,0,0,18084,0,0,146
00:01:48,812AB9E0,0,0,18084,0,0,146
00:01:56,812ABAE0,0,0,18084,0,0,146
00:02:12,812ABCE0,0,0,18084,0,0,145
00:02:20,812ABDE0,0,0,18084,0,0,145
00:02:28,812ABEE0,0,0,18084,0,0,145
00:02:36,812ABFE0,0,0,18084,0,0,144
00:02:44,812AC0E0,0,0,18084,0,0,144
00:02:52,812AC1E0,0,0,18084,0,0,144
00:03:00,812AC2E0,0,0,18084,0,0,143
00:03:16,812AC4E0,0,0,18084,0,0,143
00:03:24,812AC5E0,0,0,18084,0,0,142
00:03:32,812AC6E0,0,0,18084,0,0,142
00:03:40,812AC7E0,0,0,18084,0,0,142
00:03:48,812AC8E0,0,0,18084,0,0,141
00:03:56,812AC9E0,0,0,18084,0,0,141
00:04:04,812ACAE0,0,0,18084,0,0,141
00:04:20,812ACCE0,0,0,18084,0,0,141
00:04:28,812ACDE0,0,0,18084,0,0,141
00:04:36,812ACEE0,0,0,18084,0,0,141
00:04:52,812AD0E0,0,0,18084,0,0,141
00:05:00,812AD1E0,0,0,18084,0,0,142
00:05:08,812AD2E0,0,0,18084,0,0,142
00:05:24,812AD4E0,0,0,18084,0,0,142
00:05:32,812AD5E0,0,0,18084,0,0,142
00:05:40,812AD6E0,0,0,18084,0,0,143
00:05:48,812AD7E0,0,0,18084,0,0,143
00:05:56,812AD8E0,0,0,18084,0,0,143
00:06:04,812AD9E0,0,0,18084,0,0,143
00:06:12,812ADAE0,0,0,18084,0,0,144
00:06:28,812ADCE0,0,0,18084,0,0,144
00:06:36,812ADDE0,0,0,18084,0,0,144
00:06:44,812ADEE0,0,0,18084,0,0,144
00:06:52,812ADFE0,0,0,18084,0,0,144
00:07:00,812AE0E0,0,0,18084,0,0,144
00:07:08,812AE1E0,0,0,18084,0,0,145
00:07:16,812AE2E0,0,0,18084,0,0,145
00:07:32,812AE4E0,0,0,18084,0,0,145
00:07:40,812AE5E0,0,0,18084,0,0,145
00:07:48,812AE6E0,0,0,18084,0,0,145
00:07:56,812AE7E0,0,0,18084,0,0,145
00:08:04,812AE8E0,0,0,18084,0,0,146
00:08:12,812AE9E0,0,0,18084,0,0,146
00:08:20,812AEAE0,0,0,18084,0,0,146
00:08:36,812AECE0,0,0,18084,0,0,145
00:08:44,812AEDE0,0,0,18084,0,0,145
00:08:52,812AEEE0,0,0,18084,0,0,145
00:09:08,812AF0E0,0,0,18084,0,0,144
00:09:16,812AF1E0,0,0,18084,0,0,143
00:09:24,812AF2E0,0,0,18084,0,0,143
00:09:40,812AF4E0,0,0,18084,0,0,142
00:09:48,812AF5E0,0,0,18084,0,0,142
00:09:56,812AF6E0,0,0,18084,0,0,142
00:10:04,812AF7E0,0,0,18084,0,0,142
00:10:12,812AF8E0,0,0,18084,0,0,141
00:10:20,812AF9E0,0,0,18084,0,0,141
00:10:28,812AFAE0,0,0,18084,0,0,141
00:10:44,812AFCE0,0,0,18084,0,0,141
00:10:52,812AFDE0,0,0,18084,0,0,141
00:11:00,812AFEE0,0,0,18084,0,0,141
00:11:08,812AFFE0,0,0,18084,0,0,141
00:11:16,812B00E0,0,0,18084,0,0,142
00:11:24,812B01E0,0,0,18084,0,0,142
00:11:32,812B02E0,0,0,18084,0,0,142
00:11:48,812B04E0,0,0,18084,0,0,143
00:11:56,812B05E0,0,0,18084,0,0,143
00:12:04,812B06E0,0,0,18084,0,0,143
00:12:12,812B07E0,0,0,18084,0,0,143
00:12:20,812B08E0,0,0,18084,0,0,143
00:12:28,812B09E0,0,0,18084,0,0,143
00:12:36,812B0AE0,0,0,18084,0,0,144
00:12:52,812B0CE0,0,0,18084,0,0,144
00:13:00,812B0DE0,0,0,18084,0,0,144
00:13:08,812B0EE0,0,0,18084,0,0,144
00:13:24,812B10E0,0,0,18084,0,0,145
00:13:32,812B11E0,0,0,18084,0,0,145
00:13:40,812B12E0,0,0,18084,0,0,145
00:13:56,812B14E0,0,0,18084,0,0,145
00:14:04,812B15E0,0,0,18084,0,0,145
00:14:12,812B16E0,0,0,18084,0,0,145
00:14:20,812B17E0,0,0,18084,0,0,145
00:14:28,812B18E0,0,0,18084,0,0,145
00:14:36,812B19E0,0,0,18084,0,0,145
00:14:44,812B1AE0,0,0,18084,0,0,145
00:15:00,812B1CE0,0,0,18084,0,0,145
00:15:08,812B1DE0,0,0,18084,0,0,145
00:15:16,812B1EE0,0,0,18084,0,0,145
00:15:24,812B1FE0,0,0,18084,0,0,145
00:15:32,812B20E0,0,0,18084,0,0,144
00:15:40,812B21E0,0,0,18084,0,0,144
00:15:48,812B22E0,0,0,18084,0,0,144
00:16:04,812B24E0,0,0,18084,0,0,143
00:16:12,812B25E0,0,0,18084,0,0,142
00:16:20,812B26E0,0,0,18084,0,0,142
00:16:28,812B27E0,0,0,18084,0,0,142
00:16:36,812B28E0,0,0,18084,0,0,142
00:16:44,812B29E0,0,0,18084,0,0,141
00:16:52,812B2AE0,0,0,18084,0,0,141
00:17:08,812B2CE0,0,0,18084,0,0,141
00:17:16,812B2DE0,0,0,18084,0,0,141
00:17:24,812B2EE0,0,0,18084,0,0,141
00:17:40,812B30E0,0,0,18084,0,0,141
00:17:48,812B31E0,0,0,18084,0,0,142
00:17:56,812B32E0,0,0,18084,0,0,142
00:18:12,812B34E0,0,0,18084,0,0,142
00:18:20,812B35E0,0,0,18084,0,0,143
00:18:28,812B36E0,0,0,18084,0,0,143
00:18:36,812B37E0,0,0,18084,0,0,143
00:18:44,812B38E0,0,0,18084,0,0,143
00:18:52,812B39E0,0,0,18084,0,0,143
00:19:00,812B3AE0,0,0,18084,0,0,144
00:19:16,812B3CE0,0,0,18084,0,0,144
00:19:24,812B3DE0,0,0,18084,0,0,144
00:19:32,812B3EE0,0,0,18084,0,0,144
00:19:40,812B3FE0,0,0,18084,0,0,144
00:19:48,812B40E0,0,0,18084,0,0,144
00:19:56,812B41E0,0,0,18084,0,0,145
00:20:04,812B42E0,0,0,18084,0,0,145
00:20:20,812B44E0,0,0,18084,0,0,145
00:20:28,812B45E0,0,0,18084,0,0,145
00:20:36,812B46E0,0,0,18084,0,0,145
00:20:44,812B47E0,0,0,18084,0,0,145
00:20:52,812B48E0,0,0,18084,0,0,145
00:21:00,812B49E0,0,0,18084,0,0,146
00:21:08,812B4AE0,0,0,18084,0,0,146
00:21:24,812B4CE0,0,0,18084,0,0,145
00:21:32,812B4DE0,0,0,18084,0,0,145
00:21:40,812B4EE0,0,0,18084,0,0,145
00:21:56,812B50E0,0,0,18084,0,0,144
00:22:04,812B51E0,0,0,18084,0,0,144
00:22:12,812B52E0,0,0,18084,0,0,144
00:22:28,812B54E0,0,0,18084,0,0,143
00:22:36,812B55E0,0,0,18084,0,0,143
00:22:44,812B56E0,0,0,18084,0,0,142
00:22:52,812B57E0,0,0,18084,0,0,142
00:23:00,812B58E0,0,0,18084,0,0,142
00:23:08,812B59E0,0,0,18084,0,0,141
00:23:16,812B5AE0,0,0,18084,0,0,141
00:23:32,812B5CE0,0,0,18084,0,0,141
00:23:40,812B5DE0,0,0,18084,0,0,141
00:23:48,812B5EE0,0,0,18084,0,0,141
00:23:56,812B5FE0,0,0,18084,0,0,141
00:24:04,812B60E0,0,0,18084,0,0,141
00:24:12,812B61E0,0,0,18084,0,0,142
00:24:20,812B62E0,0,0,18084,0,0,142
00:24:36,812B64E0,0,0,18084,0,0,142
00:24:44,812B65E0,0,0,18084,0,0,142
00:24:52,812B66E0,0,0,18084,0,0,143
00:25:00,812B67E0,0,0,18084,0,0,143
00:25:08,812B68E0,0,0,18084,0,0,143
00:25:16,812B69E0,0,0,18084,0,0,143
00:25:24,812B6AE0,0,0,18084,0,0,144
00:25:40,812B6CE0,0,0,18084,0,0,144
00:25:48,812B6DE0,0,0,18084,0,0,144
00:25:56,812B6EE0,0,0,18084,0,0,144
00:26:12,812B70E0,0,0,18084,0,0,144
00:26:20,812B71E0,0,0,18084,0,0,144
00:26:28,812B72E0,0,0,18084,0,0,145
00:26:44,812B74E0,0,0,18084,0,0,145
00:26:52,812B75E0,0,0,18084,0,0,145
00:27:00,812B76E0,0,0,18084,0,0,145
00:27:08,812B77E0,0,0,18084,0,0,145
00:27:16,812B78E0,0,0,18084,0,0,146
00:27:24,812B79E0,0,0,18084,0,0,146
00:27:32,812B7AE0,0,0,18084,0,0,146
00:27:48,812B7CE0,0,0,18084,0,0,146
00:27:56,812B7DE0,0,0,18084,0,0,145
00:28:04,812B7EE0,0,0,18084,0,0,145
00:28:12,812B7FE0,0,0,18084,0,0,144
00:28:20,812B80E0,0,0,18084,0,0,144
00:28:28,812B81E0,0,0,18084,0,0,144
00:28:36,812B82E0,0,0,18084,0,0,143
00:28:52,812B84E0,0,0,18084,0,0,143
00:29:00,812B85E0,0,0,18084,0,0,142
00:29:08,812B86E0,0,0,18084,0,0,142
00:29:16,812B87E0,0,0,18084,0,0,142
00:29:24,812B88E0,0,0,18084,0,0,142
00:29:32,812B89E0,0,0,18084,0,0,141
00:29:40,812B8AE0,0,0,18084,0,0,141
00:29:56,812B8CE0,0,0,18084,0,0,141
00:30:04,812B8DE0,0,0,18084,0,0,141
00:30:12,812B8EE0,0,0,18084,0,0,141
00:30:28,812B90E0,0,0,18084,0,0,141
00:30:36,812B91E0,0,0,18084,0,0,142
00:30:44,812B92E0,0,0,18084,0,0,142
00:31:00,812B94E0,0,0,18084,0,0,142
00:31:08,812B95E0,0,0,18084,0,0,143
00:31:16,812B96E0,0,0,18084,0,0,143
00:31:24,812B97E0,0,0,18084,0,0,143
00:31:32,812B98E0,0,0,18084,0,0,143
00:31:40,812B99E0,0,0,18084,0,0,143
00:31:48,812B9AE0,0,0,18084,0,0,143
00:32:04,812B9CE0,0,0,18084,0,0,144
00:32:12,812B9DE0,0,0,18084,0,0,144
00:32:20,812B9EE0,0,0,18084,0,0,144
00:32:28,812B9FE0,0,0,18084,0,0,144
00:32:36,812BA0E0,0,0,18084,0,0,145
00:32:44,812BA1E0,0,0,18084,0,0,145
00:32:52,812BA2E0,0,0,18084,0,0,145
00:33:08,812BA4E0,0,0,18084,0,0,145
00:33:16,812BA5E0,0,0,18084,0,0,145
00:33:24,812BA6E0,0,0,18084,0,0,145
00:33:32,812BA7E0,0,0,18084,0,0,145
00:33:40,812BA8E0,0,0,18084,0,0,145
00:33:48,812BA9E0,0,0,18084,0,0,145
00:33:56,812BAAE0,0,0,18084,0,0,145
00:34:12,812BACE0,0,0,18084,0,0,146
00:34:20,812BADE0,0,0,18084,0,0,145
00:34:28,812BAEE0,0,0,18084,0,0,145
00:34:44,812BB0E0,0,0,18084,0,0,145
00:34:52,812BB1E0,0,0,18084,0,0,144
00:35:00,812BB2E0,0,0,18084,0,0,144
00:35:16,812BB4E0,0,0,18084,0,0,143
00:35:24,812BB5E0,0,0,18084,0,0,143
00:35:32,812BB6E0,0,0,18084,0,0,142
00:35:40,812BB7E0,0,0,18084,0,0,142
00:35:48,812BB8E0,0,0,18084,0,0,142
00:35:56,812BB9E0,0,0,18084,0,0,142
00:36:04,812BBAE0,0,0,18084,0,0,141
00:36:20,812BBCE0,0,0,18084,0,0,141
00:36:28,812BBDE0,0,0,18084,0,0,141
00:36:36,812BBEE0,0,0,18084,0,0,141
00:36:44,812BBFE0,0,0,18084,0,0,141
00:36:52,812BC0E0,0,0,18084,0,0,141
00:37:00,812BC1E0,0,0,18084,0,0,141
00:37:08,812BC2E0,0,0,18084,0,0,141
00:37:24,812BC4E0,0,0,18084,0,0,142
00:37:32,812BC5E0,0,0,18084,0,0,142
00:37:40,812BC6E0,0,0,18084,0,0,142
00:37:48,812BC7E0,0,0,18084,0,0,142
00:37:56,812BC8E0,0,0,18084,0,0,143
00:38:04,812BC9E0,0,0,18084,0,0,143
00:38:12,812BCAE0,0,0,18084,0,0,143
00:38:28,812BCCE0,0,0,18084,0,0,144
00:38:36,812BCDE0,0,0,18084,0,0,144
00:38:44,812BCEE0,0,0,18084,0,0,144
00:39:00,812BD0E0,0,0,18084,0,0,144
00:39:08,812BD1E0,0,0,18084,0,0,144
00:39:16,812BD2E0,0,0,18084,0,0,144
00:39:32,812BD4E0,0,0,18084,0,0,145
00:39:40,812BD5E0,0,0,18084,0,0,145
00:39:48,812BD6E0,0,0,18084,0,0,145
00:39:56,812BD7E0,0,0,18084,0,0,145
00:40:04,812BD8E0,0,0,18084,0,0,145
00:40:12,812BD9E0,0,0,18084,0,0,145
00:40:20,812BDAE0,0,0,18084,0,0,145
00:40:36,812BDCE0,0,0,18084,0,0,146
00:40:44,812BDDE0,0,0,18084,0,0,146
00:40:52,812BDEE0,0,0,18084,0,0,145
00:41:00,812BDFE0,0,0,18084,0,0,145
00:41:08,812BE0E0,0,0,18084,0,0,145
00:41:16,812BE1E0,0,0,18084,0,0,145
00:41:24,812BE2E0,0,0,18084,0,0,144
00:41:40,812BE4E0,0,0,18084,0,0,144
00:41:48,812BE5E0,0,0,18084,0,0,143
00:41:56,812BE6E0,0,0,18084,0,0,143
00:42:04,812BE7E0,0,0,18084,0,0,142
00:42:12,812BE8E0,0,0,18084,0,0,142
00:42:20,812BE9E0,0,0,18084,0,0,142
00:42:28,812BEAE0,0,0,18084,0,0,141
00:42:44,812BECE0,0,0,18084,0,0,141
00:42:52,812BEDE0,0,0,18084,0,0,141
00:43:00,812BEEE0,0,0,18084,0,0,140
00:43:16,812BF0E0,0,0,18084,0,0,141
00:43:24,812BF1E0,0,0,18084,0,0,141
00:43:32,812BF2E0,0,0,18084,0,0,141
00:43:48,812BF4E0,0,0,18084,0,0,142
00:43:56,812BF5E0,0,0,18084,0,0,142
00:44:04,812BF6E0,0,0,18084,0,0,142
00:44:12,812BF7E0,0,0,18084,0,0,142
00:44:20,812BF8E0,0,0,18084,0,0,143
00:44:28,812BF9E0,0,0,18084,0,0,143
00:44:36,812BFAE0,0,0,18084,0,0,143
00:44:52,812BFCE0,0,0,18084,0,0,143
00:45:00,812BFDE0,0,0,18084,0,0,144
00:45:08,812BFEE0,0,0,18084,0,0,144
00:45:16,812BFFE0,0,0,18084,0,0,144
00:45:24,812C00E0,0,0,18084,0,0,144
00:45:32,812C01E0,0,0,18084,0,0,144
00:45:40,812C02E0,0,0,18084,0,0,144
00:45:56,812C04E0,0,0,18084,0,0,145
00:46:04,812C05E0,0,0,18084,0,0,145
00:46:12,812C06E0,0,0,18084,0,0,145
00:46:20,812C07E0,0,0,18084,0,0,145
00:46:28,812C08E0,0,0,18084,0,0,145
00:46:36,812C09E0,0,0,18084,0,0,145
00:46:44,812C0AE0,0,0,18084,0,0,145
00:47:00,812C0CE0,0,0,18084,0,0,146
00:47:08,812C0DE0,0,0,18084,0,0,146
00:47:16,812C0EE0,0,0,18084,0,0,146
00:47:32,812C10E0,0,0,18084,0,0,145
00:47:40,812C11E0,0,0,18084,0,0,145
00:47:48,812C12E0,0,0,18084,0,0,145
00:48:04,812C14E0,0,0,18084,0,0,144
00:48:12,812C15E0,0,0,18084,0,0,143
00:48:20,812C16E0,0,0,18084,0,0,143
00:48:28,812C17E0,0,0,18084,0,0,143
00:48:36,812C18E0,0,0,18084,0,0,142
00:48:44,812C19E0,0,0,18084,0,0,142
00:48:52,812C1AE0,0,0,18084,0,0,142
00:49:08,812C1CE0,0,0,18084,0,0,141
00:49:16,812C1DE0,0,0,18084,0,0,141
00:49:24,812C1EE0,0,0,18084,0,0,141
00:49:32,812C1FE0,0,0,18084,0,0,141
00:49:40,812C20E0,0,0,18084,0,0,141
00:49:48,812C21E0,0,0,18084,0,0,141
00:49:56,812C22E0,0,0,18084,0,0,141
00:50:12,812C24E0,0,0,18084,0,0,141
00:50:20,812C25E0,0,0,18084,0,0,142
00:50:28,812C26E0,0,0,18084,0,0,142
00:50:36,812C27E0,0,0,18084,0,0,142
00:50:44,812C28E0,0,0,18084,0,0,142
00:50:52,812C29E0,0,0,18084,0,0,143
00:51:00,812C2AE0,0,0,18084,0,0,143
00:51:16,812C2CE0,0,0,18084,0,0,143
00:51:24,812C2DE0,0,0,18084,0,0,143
00:51:32,812C2EE0,0,0,18084,0,0,143
00:51:48,812C30E0,0,0,18084,0,0,144
00:51:56,812C31E0,0,0,18084,0,0,144
00:52:04,812C32E0,0,0,18084,0,0,144
00:52:20,812C34E0,0,0,18084,0,0,145
00:52:28,812C35E0,0,0,18084,0,0,145
00:52:36,812C36E0,0,0,18084,0,0,145
00:52:44,812C37E0,0,0,18084,0,0,145
00:52:52,812C38E0,0,0,18084,0,0,145
00:53:00,812C39E0,0,0,18084,0,0,145
00:53:08,812C3AE0,0,0,18084,0,0,145
00:53:24,812C3CE0,0,0,18084,0,0,145
00:53:32,812C3DE0,0,0,18084,0,0,146
00:53:40,812C3EE0,0,0,18084,0,0,146
00:53:48,812C3FE0,0,0,18084,0,0,146
00:53:56,812C40E0,0,0,18084,0,0,146
00:54:04,812C41E0,0,0,18084,0,0,145
00:54:12,812C42E0,0,0,18084,0,0,145
00:54:28,812C44E0,0,0,18084,0,0,144
00:54:36,812C45E0,0,0,18084,0,0,144
00:54:44,812C46E0,0,0,18084,0,0,143
00:54:52,812C47E0,0,0,18084,0,0,143
00:55:00,812C48E0,0,0,18084,0,0,143
00:55:08,812C49E0,0,0,18084,0,0,142
00:55:16,812C4AE0,0,0,18084,0,0,142
00:55:32,812C4CE0,0,0,18084,0,0,141
00:55:40,812C4DE0,0,0,18084,0,0,141
00:55:48,812C4EE0,0,0,18084,0,0,141
00:56:04,812C50E0,0,0,18084,0,0,141
00:56:12,812C51E0,0,0,18084,0,0,141
00:56:20,812C52E0,0,0,18084,0,0,141
00:56:36,812C54E0,0,0,18084,0,0,141
00:56:44,812C55E0,0,0,18084,0,0,141
00:56:52,812C56E0,0,0,18084,0,0,142
00:57:00,812C57E0,0,0,18084,0,0,142
00:57:08,812C58E0,0,0,18084,0,0,142
00:57:16,812C59E0,0,0,18084,0,0,142
00:57:24,812C5AE0,0,0,18084,0,0,143
00:57:40,812C5CE0,0,0,18084,0,0,143
00:57:48,812C5DE0,0,0,18084,0,0,143
00:57:56,812C5EE0,0,0,18084,0,0,143
00:58:04,812C5FE0,0,0,18084,0,0,144
00:58:12,812C60E0,0,0,18084,0,0,144
00:58:20,812C61E0,0,0,18084,0,0,144
00:58:28,812C62E0,0,0,18084,0,0,144
00:58:44,812C64E0,0,0,18084,0,0,144
00:58:52,812C65E0,0,0,18084,0,0,145
00:59:00,812C66E0,0,0,18084,0,0,145
00:59:08,812C67E0,0,0,18084,0,0,145
00:59:16,812C68E0,0,0,18084,0,0,145
00:59:24,812C69E0,0,0,18084,0,0,145
00:59:32,812C6AE0,0,0,18084,0,0,145
00:59:48,812C6CE0,0,0,18084,0,0,145
00:59:56,812C6DE0,0,0,18084,0,0,145
01:00:04,812C6EE0,0,0,18084,0,0,146
01:00:20,812C70E0,0,0,18084,0,0,145
01:00:28,812C71E0,0,0,18084,0,0,145
01:00:36,812C72E0,0,0,18084,0,0,145
01:00:52,812C74E0,0,0,18084,0,0,144
01:01:00,812C75E0,0,0,18084,0,0,144
01:01:08,812C76E0,0,0,18084,0,0,144
01:01:16,812C77E0,0,0,18084,0,0,143
01:01:24,812C78E0,0,0,18084,0,0,143
01:01:32,812C79E0,0,0,18084,0,0,142
01:01:40,812C7AE0,0,0,18084,0,0,142
01:01:56,812C7CE0,0,0,18084,0,0,141
01:02:04,812C7DE0,0,0,18084,0,0,141
01:02:12,812C7EE0,0,0,18084,0,0,141
01:02:20,812C7FE0,0,0,18084,0,0,141
01:02:28,812C80E0,0,0,18084,0,0,141
01:02:36,812C81E0,0,0,18084,0,0,141
01:02:44,812C82E0,0,0,18084,0,0,141
01:03:00,812C84E0,0,0,18084,0,0,141
01:03:08,812C85E0,0,0,18084,0,0,142
01:03:16,812C86E0,0,0,18084,0,0,142
01:03:24,812C87E0,0,0,18084,0,0,142
01:03:32,812C88E0,0,0,18084,0,0,142
01:03:40,812C89E0,0,0,18084,0,0,142
01:03:48,812C8AE0,0,0,18084,0,0,143
01:04:04,812C8CE0,0,0,18084,0,0,143
01:04:12,812C8DE0,0,0,18084,0,0,143
01:04:20,812C8EE0,0,0,18084,0,0,144
01:04:36,812C90E0,0,0,18084,0,0,144
01:04:44,812C91E0,0,0,18084,0,0,144
01:04:52,812C92E0,0,0,18084,0,0,144
01:05:08,812C94E0,0,0,18084,0,0,144
01:05:16,812C95E0,0,0,18084,0,0,144
01:05:24,812C96E0,0,0,18084,0,0,145
01:05:32,812C97E0,0,0,18084,0,0,145
01:05:40,812C98E0,0,0,18084,0,0,145
01:05:48,812C99E0,0,0,18084,0,0,145
01:05:56,812C9AE0,0,0,18084,0,0,145
01:06:12,812C9CE0,0,0,18084,0,0,146
01:06:20,812C9DE0,0,0,18084,0,0,146
01:06:28,812C9EE0,0,0,18084,0,0,146
01:06:36,812C9FE0,0,0,18084,0,0,146
01:06:44,812CA0E0,0,0,18084,0,0,146
01:06:52,812CA1E0,0,0,18084,0,0,145
01:07:00,812CA2E0,0,0,18084,0,0,145
01:07:16,812CA4E0,0,0,18084,0,0,144
01:07:24,812CA5E0,0,0,18084,0,0,144
01:07:32,812CA6E0,0,0,18084,0,0,144
01:07:40,812CA7E0,0,0,18084,0,0,143
01:07:48,812CA8E0,0,0,18084,0,0,143
01:07:56,812CA9E0,0,0,18084,0,0,143
01:08:04,812CAAE0,0,0,18084,0,0,142
01:08:20,812CACE0,0,0,18084,0,0,142
01:08:28,812CADE0,0,0,18084,0,0,142
01:08:36,812CAEE0,0,0,18084,0,0,141
01:08:52,812CB0E0,0,0,18084,0,0,141
01:09:00,812CB1E0,0,0,18084,0,0,140
01:09:08,812CB2E0,0,0,18084,0,0,141
01:09:24,812CB4E0,0,0,18084,0,0,141
01:09:32,812CB5E0,0,0,18084,0,0,141
01:09:40,812CB6E0,0,0,18084,0,0,142
01:09:48,812CB7E0,0,0,18084,0,0,142
01:09:56,812CB8E0,0,0,18084,0,0,142
01:10:04,812CB9E0,0,0,18084,0,0,142
01:10:12,812CBAE0,0,0,18084,0,0,143
01:10:28,812CBCE0,0,0,18084,0,0,143
01:10:36,812CBDE0,0,0,18084,0,0,143
01:10:44,812CBEE0,0,0,18084,0,0,143
01:10:52,812CBFE0,0,0,18084,0,0,143
01:11:00,812CC0E0,0,0,18084,0,0,144
01:11:08,812CC1E0,0,0,18084,0,0,144
01:11:16,812CC2E0,0,0,18084,0,0,144
01:11:32,812CC4E0,0,0,18084,0,0,144
01:11:40,812CC5E0,0,0,18084,0,0,144
01:11:48,812CC6E0,0,0,18084,0,0,145
01:11:56,812CC7E0,0,0,18084,0,0,145
01:12:04,812CC8E0,0,0,18084,0,0,145
01:12:12,812CC9E0,0,0,18084,0,0,145
01:12:20,812CCAE0,0,0,18084,0,0,145
01:12:36,812CCCE0,0,0,18084,0,0,145
01:12:44,812CCDE0,0,0,18084,0,0,145
01:12:52,812CCEE0,0,0,18084,0,0,146
01:13:08,812CD0E0,0,0,18084,0,0,146
01:13:16,812CD1E0,0,0,18084,0,0,146
01:13:24,812CD2E0,0,0,18084,0,0,145
01:13:40,812CD4E0,0,0,18084,0,0,145
01:13:48,812CD5E0,0,0,18084,0,0,144
01:13:56,812CD6E0,0,0,18084,0,0,144
01:14:04,812CD7E0,0,0,18084,0,0,143
01:14:12,812CD8E0,0,0,18084,0,0,143
01:14:20,812CD9E0,0,0,18084,0,0,143
01:14:28,812CDAE0,0,0,18084,0,0,142
01:14:44,812CDCE0,0,0,18084,0,0,142
01:14:52,812CDDE0,0,0,18084,0,0,141
01:15:00,812CDEE0,0,0,18084,0,0,141
01:15:08,812CDFE0,0,0,18084,0,0,141
01:15:16,812CE0E0,0,0,18084,0,0,141
01:15:24,812CE1E0,0,0,18084,0,0,141
01:15:32,812CE2E0,0,0,18084,0,0,141
01:15:48,812CE4E0,0,0,18084,0,0,141
01:15:56,812CE5E0,0,0,18084,0,0,141
01:16:04,812CE6E0,0,0,18084,0,0,141
01:16:12,812CE7E0,0,0,18084,0,0,142
01:16:20,812CE8E0,0,0,18084,0,0,142
01:16:28,812CE9E0,0,0,18084,0,0,142
01:16:36,812CEAE0,0,0,18084,0,0,143
01:16:52,812CECE0,0,0,18084,0,0,143
01:17:00,812CEDE0,0,0,18084,0,0,143
01:17:08,812CEEE0,0,0,18084,0,0,143
01:17:24,812CF0E0,0,0,18084,0,0,144
01:17:32,812CF1E0,0,0,18084,0,0,144
01:17:40,812CF2E0,0,0,18084,0,0,144
01:17:56,812CF4E0,0,0,18084,0,0,144
01:18:04,812CF5E0,0,0,18084,0,0,144
01:18:12,812CF6E0,0,0,18084,0,0,145
01:18:20,812CF7E0,0,0,18084,0,0,145
01:18:28,812CF8E0,0,0,18084,0,0,145
01:18:36,812CF9E0,0,0,18084,0,0,145
01:18:44,812CFAE0,0,0,18084,0,0,145
01:19:00,812CFCE0,0,0,18084,0,0,145
01:19:08,812CFDE0,0,0,18084,0,0,145
01:19:16,812CFEE0,0,0,18084,0,0,145
01:19:24,812CFFE0,0,0,18084,0,0,145
01:19:32,812D00E0,0,0,18084,0,0,146
01:19:40,812D01E0,0,0,18084,0,0,145
01:19:48,812D02E0,0,0,18084,0,0,145
01:20:04,812D04E0,0,0,18084,0,0,145
01:20:12,812D05E0,0,0,18084,0,0,144
01:20:20,812D06E0,0,0,18084,0,0,144
01:20:28,812D07E0,0,0,18084,0,0,144
01:20:36,812D08E0,0,0,18084,0,0,143
01:20:44,812D09E0,0,0,18084,0,0,143
01:20:52,812D0AE0,0,0,18084,0,0,143
01:21:08,812D0CE0,0,0,18084,0,0,142
01:21:16,812D0DE0,0,0,18084,0,0,142
01:21:24,812D0EE0,0,0,18084,0,0,141
01:21:40,812D10E0,0,0,18084,0,0,141
01:21:48,812D11E0,0,0,18084,0,0,141
01:21:56,812D12E0,0,0,18084,0,0,141
01:22:12,812D14E0,0,0,18084,0,0,141
01:22:20,812D15E0,0,0,18084,0,0,141
01:22:28,812D16E0,0,0,18084,0,0,141
01:22:36,812D17E0,0,0,18084,0,0,142
01:22:44,812D18E0,0,0,18084,0,0,142
01:22:52,812D19E0,0,0,18084,0,0,142
01:23:00,812D1AE0,0,0,18084,0,0,142
01:23:16,812D1CE0,0,0,18084,0,0,143
01:23:24,812D1DE0,0,0,18084,0,0,143
01:23:32,812D1EE0,0,0,18084,0,0,143
01:23:40,812D1FE0,0,0,18084,0,0,143
01:23:48,812D20E0,0,0,18084,0,0,144
01:23:56,812D21E0,0,0,18084,0,0,144
01:24:04,812D22E0,0,0,18084,0,0,144
01:24:20,812D24E0,0,0,18084,0,0,144
01:24:28,812D25E0,0,0,18084,0,0,144
01:24:36,812D26E0,0,0,18084,0,0,144
01:24:44,812D27E0,0,0,18084,0,0,145
01:24:52,812D28E0,0,0,18084,0,0,145
01:25:00,812D29E0,0,0,18084,0,0,145
01:25:08,812D2AE0,0,0,18084,0,0,145
01:25:24,812D2CE0,0,0,18084,0,0,145
01:25:32,812D2DE0,0,0,18084,0,0,145
01:25:40,812D2EE0,0,0,18084,0,0,146
01:25:56,812D30E0,0,0,18084,0,0,146
01:26:04,812D31E0,0,0,18084,0,0,146
01:26:12,812D32E0,0,0,18084,0,0,145
01:26:28,812D34E0,0,0,18084,0,0,145
01:26:36,812D35E0,0,0,18084,0,0,144
01:26:44,812D36E0,0,0,18084,0,0,144
01:26:52,812D37E0,0,0,18084,0,0,143
01:27:00,812D38E0,0,0,18084,0,0,143
01:27:08,812D39E0,0,0,18084,0,0,143
01:27:16,812D3AE0,0,0,18084,0,0,143
01:27:32,812D3CE0,0,0,18084,0,0,142
01:27:40,812D3DE0,0,0,18084,0,0,142
01:27:48,812D3EE0,0,0,18084,0,0,141
01:27:56,812D3FE0,0,0,18084,0,0,141
01:28:04,812D40E0,0,0,18084,0,0,141
01:28:12,812D41E0,0,0,18084,0,0,141
01:28:20,812D42E0,0,0,18084,0,0,141
01:28:36,812D44E0,0,0,18084,0,0,141
01:28:44,812D45E0,0,0,18084,0,0,141
01:28:52,812D46E0,0,0,18084,0,0,142
01:29:00,812D47E0,0,0,18084,0,0,142
01:29:08,812D48E0,0,0,18084,0,0,142
01:29:16,812D49E0,0,0,18084,0,0,142
01:29:24,812D4AE0,0,0,18084,0,0,142
01:29:40,812D4CE0,0,0,18084,0,0,143
01:29:48,812D4DE0,0,0,18084,0,0,143
01:29:56,812D4EE0,0,0,18084,0,0,143
01:30:12,812D50E0,0,0,18084,0,0,143
01:30:20,812D51E0,0,0,18084,0,0,144
01:30:28,812D52E0,0,0,18084,0,0,144
01:30:44,812D54E0,0,0,18084,0,0,144
01:30:52,812D55E0,0,0,18084,0,0,144
01:31:00,812D56E0,0,0,18084,0,0,145
01:31:08,812D57E0,0,0,18084,0,0,145
01:31:16,812D58E0,0,0,18084,0,0,145
01:31:24,812D59E0,0,0,18084,0,0,145
01:31:32,812D5AE0,0,0,18084,0,0,145
01:31:48,812D5CE0,0,0,18084,0,0,145
01:31:56,812D5DE0,0,0,18084,0,0,145
01:32:04,812D5EE0,0,0,18084,0,0,146
01:32:12,812D5FE0,0,0,18084,0,0,146
01:32:20,812D60E0,0,0,18084,0,0,146
01:32:28,812D61E0,0,0,18084,0,0,146
01:32:36,812D62E0,0,0,18084,0,0,146
01:32:52,812D64E0,0,0,18084,0,0,145
01:33:00,812D65E0,0,0,18084,0,0,145
01:33:08,812D66E0,0,0,18084,0,0,144
01:33:16,812D67E0,0,0,18084,0,0,144
01:33:24,812D68E0,0,0,18084,0,0,143
01:33:32,812D69E0,0,0,18084,0,0,143
01:33:40,812D6AE0,0,0,18084,0,0,143
01:33:56,812D6CE0,0,0,18084,0,0,142
01:34:04,812D6DE0,0,0,18084,0,0,142
01:34:12,812D6EE0,0,0,18084,0,0,142
01:34:28,812D70E0,0,0,18084,0,0,141
01:34:36,812D71E0,0,0,18084,0,0,141
01:34:44,812D72E0,0,0,18084,0,0,141
01:35:00,812D74E0,0,0,18084,0,0,141
01:35:08,812D75E0,0,0,18084,0,0,141
01:35:16,812D76E0,0,0,18084,0,0,141
01:35:24,812D77E0,0,0,18084,0,0,141
01:35:32,812D78E0,0,0,18084,0,0,142
01:35:40,812D79E0,0,0,18084,0,0,142
01:35:48,812D7AE0,0,0,18084,0,0,142
01:36:04,812D7CE0,0,0,18084,0,0,143
01:36:12,812D7DE0,0,0,18084,0,0,143
01:36:20,812D7EE0,0,0,18084,0,0,143
01:36:28,812D7FE0,0,0,18084,0,0,143
01:36:36,812D80E0,0,0,18084,0,0,143
01:36:44,812D81E0,0,0,18084,0,0,144
01:36:52,812D82E0,0,0,18084,0,0,144
01:37:08,812D84E0,0,0,18084,0,0,144
01:37:16,812D85E0,0,0,18084,0,0,144
01:37:24,812D86E0,0,0,18084,0,0,144
01:37:32,812D87E0,0,0,18084,0,0,145
01:37:40,812D88E0,0,0,18084,0,0,145
01:37:48,812D89E0,0,0,18084,0,0,145
01:37:56,812D8AE0,0,0,18084,0,0,145
01:38:12,812D8CE0,0,0,18084,0,0,145
01:38:20,812D8DE0,0,0,18084,0,0,145
01:38:28,812D8EE0,0,0,18084,0,0,145
01:38:44,812D90E0,0,0,18084,0,0,145
01:38:52,812D91E0,0,0,18084,0,0,145
01:39:00,812D92E0,0,0,18084,0,0,145
01:39:16,812D94E0,0,0,18084,0,0,145
01:39:24,812D95E0,0,0,18084,0,0,145
01:39:32,812D96E0,0,0,18084,0,0,144
01:39:40,812D97E0,0,0,18084,0,0,144
01:39:48,812D98E0,0,0,18084,0,0,144
01:39:56,812D99E0,0,0,18084,0,0,143
01:40:04,812D9AE0,0,0,18084,0,0,143
01:40:20,812D9CE0,0,0,18084,0,0,142
01:40:28,812D9DE0,0,0,18084,0,0,142
01:40:36,812D9EE0,0,0,18084,0,0,141
01:40:44,812D9FE0,0,0,18084,0,0,141
01:40:52,812DA0E0,0,0,18084,0,0,141
01:41:00,812DA1E0,0,0,18084,0,0,141
01:41:08,812DA2E0,0,0,18084,0,0,141
01:41:24,812DA4E0,0,0,18084,0,0,141
01:41:32,812DA5E0,0,0,18084,0,0,141
01:41:40,812DA6E0,0,0,18084,0,0,141
01:41:48,812DA7E0,0,0,18084,0,0,142
01:41:56,812DA8E0,0,0,18084,0,0,142
01:42:04,812DA9E0,0,0,18084,0,0,142
01:42:12,812DAAE0,0,0,18084,0,0,142